Location: Shades State Park
(39.9310°N, 87.0690°W)
Time: 06:19:42
(UTC-04:00)

ISS - Visible Passes

Search period start: 23 May 2015 00:00
Search period end: 02 June 2015 00:00
Orbit: 399 x 404 km, 51.6° (Epoch: 22 May)

Date Brightness Start Highest point End Pass type
(mag) Time Alt. Az. Time Alt. Az. Time Alt. Az.
23 May -0.4 02:48:09 17° NE 02:48:09 17° NE 02:49:02 10° NE visible
23 May -0.5 04:20:53 10° NW 04:22:49 15° NNW 04:24:44 10° NNE visible
24 May -0.9 03:29:10 19° NNW 03:29:20 19° NNW 03:31:46 10° NNE visible
24 May -0.2 05:05:53 10° NNW 05:06:45 11° N 05:07:36 10° NNE visible
25 May -0.5 02:37:32 18° NNE 02:37:32 18° NNE 02:38:46 10° NE visible
25 May -0.2 04:11:56 10° NNW 04:13:09 12° N 04:14:21 10° NNE visible
25 May -0.3 05:49:00 10° NNW 05:50:40 13° NNE 05:52:22 10° NE visible
26 May -0.4 03:18:22 12° NW 03:19:33 14° NNW 03:21:19 10° NNE visible
26 May -0.1 04:55:57 10° NNW 04:57:04 11° N 04:58:12 10° NNE visible
27 May -0.4 02:26:33 17° N 02:26:33 17° N 02:28:18 10° NNE visible
27 May 0.0 04:02:35 10° NNW 04:03:25 11° N 04:04:15 10° NNE visible
27 May -0.4 05:38:29 10° NNW 05:40:50 18° NNE 05:43:13 10° ENE visible
28 May -0.2 01:34:34 14° NNE 01:34:34 14° NNE 01:35:14 10° NNE visible
28 May 0.0 03:08:39 10° NNW 03:09:44 11° N 03:10:49 10° NNE visible
28 May -0.2 04:45:26 10° NNW 04:47:14 14° NNE 04:49:04 10° NE visible
29 May -0.1 02:14:51 11° NW 02:16:03 13° NNW 02:17:40 10° NNE visible
29 May 0.1 03:52:20 10° NNW 03:53:34 12° N 03:54:48 10° NNE visible
29 May -1.1 05:27:54 10° NW 05:30:48 29° NNE 05:33:42 10° E visible
30 May -0.4 01:21:58 16° NNW 01:22:23 17° NNW 01:24:34 10° NNE visible
30 May 0.2 02:59:00 10° NNW 02:59:50 11° N 03:00:40 10° NNE visible
30 May -0.4 04:34:46 10° NNW 04:37:13 20° NNE 04:39:42 10° ENE visible
30 May -3.2 22:49:03 10° SW 22:52:11 49° SE 22:55:20 10° ENE visible
31 May -0.9 00:26:04 10° W 00:28:45 23° NNW 00:31:26 10° NNE visible
31 May 0.2 02:05:06 10° NNW 02:06:04 11° N 02:07:02 10° NNE visible
31 May 0.0 03:41:38 10° NNW 03:43:33 15° NNE 03:45:31 10° NE visible
31 May -2.6 05:17:18 10° NW 05:20:32 57° NE 05:23:44 10° ESE visible
31 May -2.2 21:56:14 10° S 21:58:52 24° SE 22:01:34 10° ENE visible
31 May -1.7 23:32:08 10° W 23:35:11 36° NNW 23:38:13 10° NE visible
01 Jun 0.2 01:10:49 10° NW 01:12:18 12° N 01:13:47 10° NNE visible
01 Jun 0.2 02:48:28 10° NNW 02:49:49 12° N 02:51:10 10° NE visible
01 Jun -1.4 04:24:01 10° NW 04:27:00 32° NNE 04:29:59 10° E visible
01 Jun -3.0 22:38:25 10° WSW 22:41:39 68° NW 22:44:53 10° NE visible
